Skip Page Navigation
NASA JPL Caltech
NASA Logo - Jet Propulsion Laboratory + View the NASA Portal
+ Center for Near-Earth Object Studies
JPL Home Earth Solar System Stars & Galaxies Technology
JPL Solar System Dynamics
BODIES ORBITS EPHEMERIDES TOOLS PHYSICAL DATA DISCOVERY FAQ SITE MAP
IMPORTANT: The SSD Announcement email list is now available. Major changes are coming in the near future, including possible hostname and/or URL changes. To be notified of such changes, subscribe to this email list.

Please visit this page for more details.


JPL Small-Body Database Browser
Search: [ help ]  
233519 (2007 GX29)
Classification: Main-belt Asteroid          SPK-ID: 2233519
Ephemeris | Orbit Diagram | Orbital Elements | Mission Design | Physical Parameters | Discovery Circumstances ]

[ show orbit diagram ]
Orbital Elements at Epoch 2458600.5 (2019-Apr-27.0) TDB
Reference: JPL 15 (heliocentric ecliptic J2000)
 Element Value Uncertainty (1-sigma)   Units 
e .09913391974529623 6.0725e-08  
a 2.573146603049606 2.3339e-08 au
q 2.318060494210005 1.6396e-07 au
i 8.696359452792928 6.5511e-06 deg
node 196.2795038156065 3.351e-05 deg
peri 6.647880301337207 4.4951e-05 deg
M 333.8766996383852 3.1785e-05 deg
tp 2458709.900867498782
(2019-Aug-14.40086750)
0.0001339 TDB
period 1507.63156853765
4.13
2.0512e-05
5.616e-08
d
yr
n .2387851299433769 3.2488e-09 deg/d
Q 2.828232711889207 2.5653e-08 au
  Orbit Determination Parameters
   # obs. used (total)      283  
   data-arc span      5820 days (15.93 yr)  
   first obs. used      2003-04-25  
   last obs. used      2019-04-01  
   planetary ephem.      DE431  
   SB-pert. ephem.      SB431-N16  
   condition code      0  
   norm. resid. RMS      .62213  
   source      ORB  
   producer      Otto Matic  
   solution date      2019-Jul-14 09:07:19  

Additional Information
 Earth MOID = 1.31545 au 
 Jupiter MOID = 2.13021 au 
 T_jup = 3.406 
[ hide covariance matrix ]
Orbital Elements at Epoch 2457120.5 (2015-Apr-08.0) TDB
Reference: JPL 15 (heliocentric ecliptic J2000)
 Element Value Uncertainty (1-sigma)   Units 
e .0994285220832291 6.0877e-08  
q 2.317822688942855 1.6455e-07 au
tp 2457199.584970981345
(2015-Jun-26.08497098)
0.00012319 TDB
node 196.2924450006167 3.3512e-05 deg
peri 6.10828111168316 4.4805e-05 deg
i 8.695446591741781 6.5511e-06 deg
  Orbit Determination Parameters
   # obs. used (total)      283  
   data-arc span      5820 days (15.93 yr)  
   first obs. used      2003-04-25  
   last obs. used      2019-04-01  
   planetary ephem.      DE431  
   SB-pert. ephem.      SB431-N16  
   condition code      0  
   norm. resid. RMS      .62213  
   source      ORB  
   producer      Otto Matic  
   solution date      2019-Jul-14 09:07:19  

Additional Information
 Jupiter MOID = 2.13021 au 
 T_jup = 3.406 
Orbit Covariance (6×6)
  e q tp node peri i
e 3.705979814184499E-15 -9.942627309269029E-15 -3.224741762755403E-12 -3.879031663416271E-14 -7.145726730726961E-13 4.955658882532417E-15
q -9.942627309269029E-15 2.707709653600318E-14 9.384889312895276E-12 1.05054694328847E-13 2.084000402188481E-12 -1.316852838066469E-14
tp -3.224741762755403E-12 9.384889312895276E-12 1.517496965842848E-8 4.205558894799247E-11 3.682981765953143E-9 -8.875574771339382E-12
node -3.879031663416271E-14 1.05054694328847E-13 4.205558894799247E-11 1.123039379451011E-9 -1.099746396645412E-9 -5.685401942937332E-11
peri -7.145726730726961E-13 2.084000402188481E-12 3.682981765953143E-9 -1.099746396645412E-9 2.007447193806811E-9 5.415955763361677E-11
i 4.955658882532417E-15 -1.316852838066469E-14 -8.875574771339382E-12 -5.685401942937332E-11 5.415955763361677E-11 4.291626104870583E-11

Ephemeris | Orbit Diagram | Orbital Elements | Mission Design | Physical Parameters | Discovery Circumstances ]

Physical Parameter Table
Parameter Symbol Value Units Sigma Reference Notes
absolute magnitude H 16.2   n/a MPO437097  
diameter diameter 3.443 km 0.230 urn:nasa:pds:neowise_diameters_albedos::2.0[mainbelt] (http://adsabs.harvard.edu/abs/2011ApJ...741...68M)  
geometric albedo albedo 0.054   0.009 urn:nasa:pds:neowise_diameters_albedos::2.0[mainbelt] (http://adsabs.harvard.edu/abs/2011ApJ...741...68M)  

233519 (2007 GX29)          Discovered 2007-Apr-14 by Spacewatch at Kitt Peak
Reference: 20100228/Numbers.arcLast Updated: 2010-03-03
Ephemeris | Orbit Diagram | Orbital Elements | Mission Design | Physical Parameters | Discovery Circumstances ]
ABOUT SSD CREDITS/AWARDS PRIVACY/COPYRIGHT GLOSSARY LINKS
FirstGov 2020-Jan-17 14:15 UT
(server date/time)  
NASA Home Page
Site Manager:   Ryan S. Park
Webmaster  Alan B. Chamberlin